Find Starlink 35290

NORAD ID: 65846 Int'l Des: 2025-221 Owner: SPXS Country: US Constellation: starlink operational
LEOCIRCULAR

当前视图

正在加载3D地球...

关于 Starlink 35290

正在加载描述...

即将过境

Passes for default location (London). Set your location on the main map for personalized predictions.

高度历史

Loading altitude history...

两行轨道根数

1 65846U 25221Z 26146.13526074 .00019145 00000-0 59111-3 0 9998
2 65846 53.1577 88.3989 0000881 80.6271 279.4831 15.33595169 36599
Epoch: May 26, 2026 • Age: 17 hours

当前状态

高度 484.1 km
速度 7.62 km/s
星下点 -53.15°S, 163.95°E
发射日期 Sep 29, 2025
运行时间 0.6 years
类型 internet

技术详情

分类 Payload
质量 575.00 kg
干质量 530.00 kg
总质量 575.00 kg
长度 0.30 m
直径 4.10 m
跨度 29.00 m
形状 Box + pan
制造商 SPXS
平台类型 Starlink V2MO
阶段状态 In Orbit
所有者/国家 SPXS/US

Most Searched